Change the Weather History Date:

Thursday, December 12, 2013

  Actual Average Record
Temperature  
Mean Temperature 82 °F -  
Max Temperature 90 °F - - ()
Min Temperature 73 °F - - ()
Cooling Degree Days 16    
Growing Degree Days 32 (Base 50)    
Moisture  
Dew Point 75 °F    
Average Humidity 86    
Maximum Humidity 100    
Minimum Humidity 60    
Precipitation  
Precipitation 0.04 in - - ()
Sea Level Pressure  
Sea Level Pressure 29.73 in    
Wind  
Wind Speed 2 mph ()    
Max Wind Speed 8 mph    
Max Gust Speed -    
Visibility 7.5 miles    
Events Rain    
T = Trace of Precipitation, MM = Missing Value Source: Averaged Metar Reports

Daily Weather History Graph

Daily Weather History Graph

Search for Another Location

Airport or City:

Trip Planner

Search our weather history database for the weather conditions in past years. The results will help you decide how hot, cold, wet, or windy it might be!

Date:

Astronomy

Dec. 12, 2013 Rise Set
Actual Time 6:25 AM MYT 6:25 PM MYT
Civil Twilight 6:03 AM MYT 6:48 PM MYT
Nautical Twilight 5:37 AM MYT 7:14 PM MYT
Astronomical Twilight 5:11 AM MYT 7:40 PM MYT
Moon 2:27 PM MYT (12/12) 2:06 AM MYT (12/12)
Length of Visible Light 12h 44m
Length of Day
11h 59m
Waxing Gibbous, 76% of the Moon is Illuminated
Dec 12
Waxing Gibbous
Dec 17
Full
Dec 25
Last Quarter
Jan 1
New
Jan 8
First Quarter

Hourly Weather History & Observations

Time (MYT) Temp. Heat Index Dew Point Humidity Pressure Visibility Wind Dir Wind Speed Gust Speed Precip Events Conditions
12:00 AM 75.2 °F - 73.4 °F 94% 29.77 in 6.2 mi South 2.3 mph - N/A   Mostly Cloudy
1:00 AM 75.2 °F - 73.4 °F 94% 29.74 in 6.2 mi SW 1.2 mph - N/A   Mostly Cloudy
2:00 AM 74 °F - 74 °F 98% 29.75 in 11 mi Calm Calm - -   Partly Cloudy
2:00 AM 75.2 °F - 73.4 °F 94% 29.74 in 6.2 mi Calm Calm - N/A   Scattered Clouds
3:00 AM 75.2 °F - 73.4 °F 94% 29.71 in 6.2 mi SSW 1.2 mph - N/A   Mostly Cloudy
4:00 AM 73.4 °F - 73.4 °F 100% 29.71 in 6.2 mi SSE 1.2 mph - N/A   Mostly Cloudy
5:00 AM 73 °F - 73 °F 99% 29.73 in 6 mi Calm Calm - - Rain Light Rain
5:00 AM 73.4 °F - 73.4 °F 100% 29.71 in 6.2 mi Calm Calm - N/A Rain Light Rain
6:00 AM 73.4 °F - 73.4 °F 100% 29.71 in 3.1 mi East 1.2 mph - N/A   Mostly Cloudy
7:00 AM 73.4 °F - 73.4 °F 100% 29.74 in 5.0 mi SE 2.3 mph - N/A   Mostly Cloudy
8:00 AM 76 °F - 74 °F 93% 29.78 in 11 mi West 1.2 mph - -   Mostly Cloudy
8:00 AM 77.0 °F - 75.2 °F 94% 29.77 in 6.2 mi West 1.2 mph - N/A   Mostly Cloudy
9:00 AM 77.0 °F - 75.2 °F 94% 29.77 in 6.2 mi SSW 1.2 mph - N/A   Mostly Cloudy
10:00 AM 80.6 °F 86.2 °F 75.2 °F 84% 29.77 in 6.2 mi SSW 1.2 mph - N/A   Mostly Cloudy
11:00 AM 86 °F - 76 °F 67% 29.79 in 17 mi NW 2.3 mph - -   Partly Cloudy
11:00 AM 86.0 °F 96.9 °F 77.0 °F 74% 29.77 in 6.2 mi NW 2.3 mph - N/A   Mostly Cloudy
12:00 PM 86.0 °F 96.9 °F 77.0 °F 74% 29.74 in 6.2 mi SE 3.5 mph - N/A   Mostly Cloudy
1:00 PM 87.8 °F 97.6 °F 75.2 °F 66% 29.71 in 6.2 mi WSW 3.5 mph - N/A   Mostly Cloudy
2:00 PM 89 °F - 77 °F 60% 29.68 in 19 mi WNW 3.5 mph - -   Partly Cloudy
2:00 PM 89.6 °F 102.2 °F 77.0 °F 66% 29.68 in 6.2 mi WNW 3.5 mph - N/A   Mostly Cloudy
3:00 PM 89.6 °F 102.2 °F 77.0 °F 66% 29.62 in 6.2 mi WNW 4.6 mph - N/A   Mostly Cloudy
4:00 PM 87.8 °F 99.7 °F 77.0 °F 70% 29.62 in 6.2 mi WNW 6.9 mph - N/A   Mostly Cloudy
5:00 PM 85 °F - 76 °F 68% 29.66 in 11 mi NW 8.1 mph - -   Mostly Cloudy
5:00 PM 86.0 °F 95.1 °F 75.2 °F 70% 29.65 in 6.2 mi NW 8.1 mph - N/A   Mostly Cloudy
6:00 PM 80.6 °F 86.2 °F 75.2 °F 84% 29.68 in 6.2 mi North 6.9 mph - N/A   Mostly Cloudy
7:00 PM 78.8 °F - 77.0 °F 94% 29.71 in 6.2 mi NNW 2.3 mph - N/A Rain Light Rain
8:00 PM 79 °F - 76 °F 90% 29.76 in 11 mi North 1.2 mph - - Rain Light Rain
8:00 PM 78.8 °F - 77.0 °F 94% 29.74 in 6.2 mi North 1.2 mph - N/A   Mostly Cloudy
9:00 PM 78.8 °F - 77.0 °F 94% 29.77 in 6.2 mi NW 1.2 mph - N/A   Mostly Cloudy
10:00 PM 78.8 °F - 77.0 °F 94% 29.77 in 6.2 mi ENE 1.2 mph - N/A   Mostly Cloudy
11:00 PM 78 °F - 76 °F 92% 29.80 in 11 mi South 1.2 mph - -   Partly Cloudy
11:00 PM 77.0 °F - 77.0 °F 100% 29.77 in 6.2 mi South 1.2 mph - N/A   Mostly Cloudy